| time (UTC) | temp C | wind direction | speed KPH | gust KPH | rain 1hr cm | rain 24hr cm | rain mn cm | humidity % | barometer mb |
| 20260504200128 | 15 | 154 | 11.3 | 20.9 | 0.00 | 0.00 | 0.00 | 44 | 1002.5 |
| 20260504195624 | 15 | 176 | 4.8 | 27.4 | 0.00 | 0.00 | 0.00 | 44 | 1002.6 |
| 20260504195121 | 15 | 236 | 14.5 | 24.1 | 0.00 | 0.00 | 0.00 | 44 | 1002.7 |
| 20260504194618 | 15 | 296 | 11.3 | 27.4 | 0.00 | 0.00 | 0.00 | 44 | 1002.4 |
| 20260504194113 | 15 | 200 | 9.7 | 25.7 | 0.00 | 0.00 | 0.00 | 44 | 1002.5 |
| 20260504193609 | 16 | 247 | 8.0 | 24.1 | 0.00 | 0.00 | 0.00 | 43 | 1002.4 |
| 20260504193108 | 15 | 234 | 17.7 | 27.4 | 0.00 | 0.00 | 0.00 | 44 | 1002.3 |
| 20260504192606 | 16 | 229 | 12.9 | 27.4 | 0.00 | 0.00 | 0.00 | 44 | 1002.2 |
| 20260504192104 | 16 | 257 | 11.3 | 20.9 | 0.00 | 0.00 | 0.00 | 44 | 1002.5 |
| 20260504191602 | 15 | 243 | 14.5 | 29.0 | 0.00 | 0.00 | 0.00 | 43 | 1002.2 |
| 20260504191058 | 16 | 226 | 16.1 | 20.9 | 0.00 | 0.00 | 0.00 | 42 | 1002.0 |
| 20260504190554 | 15 | 216 | 17.7 | 25.7 | 0.00 | 0.00 | 0.00 | 42 | 1001.9 |
| 20260504190050 | 15 | 249 | 9.7 | 24.1 | 0.00 | 0.00 | 0.00 | 40 | 1002.0 |
| 20260504185548 | 15 | 215 | 9.7 | 17.7 | 0.00 | 0.00 | 0.00 | 40 | 1002.0 |
| 20260504185044 | 16 | 193 | 4.8 | 17.7 | 0.00 | 0.00 | 0.00 | 40 | 1001.6 |
| 20260504184539 | 16 | 191 | 1.6 | 24.1 | 0.00 | 0.00 | 0.00 | 39 | 1001.7 |
| 20260504184035 | 16 | 210 | 9.7 | 22.5 | 0.00 | 0.00 | 0.00 | 40 | 1001.2 |
| 20260504183532 | 16 | 228 | 8.0 | 25.7 | 0.00 | 0.00 | 0.00 | 40 | 1001.6 |
| 20260504183030 | 16 | 182 | 16.1 | 29.0 | 0.00 | 0.00 | 0.00 | 39 | 1001.7 |
| 20260504182527 | 16 | 175 | 4.8 | 12.9 | 0.00 | 0.00 | 0.00 | 40 | 1001.5 |
| 20260504182024 | 16 | 238 | 8.0 | 24.1 | 0.00 | 0.00 | 0.00 | 39 | 1001.4 |
| 20260504181521 | 16 | 235 | 8.0 | 17.7 | 0.00 | 0.00 | 0.00 | 42 | 1001.2 |
| 20260504181020 | 16 | 243 | 9.7 | 20.9 | 0.00 | 0.00 | 0.00 | 41 | 1001.2 |
| 20260504180518 | 16 | 160 | 11.3 | 20.9 | 0.00 | 0.00 | 0.00 | 42 | 1001.2 |
| 20260504180017 | 16 | 116 | 8.0 | 24.1 | 0.00 | 0.00 | 0.00 | 42 | 1001.1 |
| 20260504175513 | 16 | 227 | 19.3 | 27.4 | 0.00 | 0.00 | 0.00 | 42 | 1001.1 |
| 20260504175010 | 16 | 151 | 11.3 | 24.1 | 0.00 | 0.00 | 0.00 | 43 | 1001.1 |
| 20260504174508 | 16 | 255 | 14.5 | 24.1 | 0.00 | 0.00 | 0.00 | 44 | 1001.1 |
| 20260504174005 | 16 | 237 | 6.4 | 17.7 | 0.00 | 0.00 | 0.00 | 44 | 1001.1 |
| 20260504173502 | 16 | 353 | 11.3 | 14.5 | 0.00 | 0.00 | 0.00 | 44 | 1001.1 |
| 20260504172959 | 15 | 214 | 8.0 | 25.7 | 0.00 | 0.00 | 0.00 | 45 | 1001.1 |
| 20260504172455 | 16 | 179 | 12.9 | 25.7 | 0.00 | 0.00 | 0.00 | 44 | 1000.9 |
| 20260504171952 | 16 | 262 | 11.3 | 35.4 | 0.00 | 0.00 | 0.00 | 44 | 1001.0 |
| 20260504171449 | 16 | 243 | 3.2 | 20.9 | 0.00 | 0.00 | 0.00 | 44 | 1000.9 |
| 20260504170946 | 16 | 160 | 12.9 | 25.7 | 0.00 | 0.00 | 0.00 | 43 | 1000.8 |
| 20260504170442 | 16 | 238 | 11.3 | 25.7 | 0.00 | 0.00 | 0.00 | 44 | 1000.9 |
| 20260504160401 | 16 | 236 | 14.5 | 29.0 | 0.00 | 0.00 | 0.00 | 43 | 1000.6 |
| 20260504150825 | 15 | 234 | 9.7 | 20.9 | 0.00 | 0.00 | 0.00 | 43 | 1000.2 |
| 20260504150322 | 15 | 173 | 16.1 | 22.5 | 0.00 | 0.00 | 0.00 | 43 | 1000.5 |
| 20260504141252 | 15 | 250 | 11.3 | 22.5 | 0.00 | 0.00 | 0.00 | 46 | 1000.1 |
| 20260504140749 | 15 | 214 | 16.1 | 22.5 | 0.00 | 0.00 | 0.00 | 47 | 1000.2 |
| 20260504140244 | 15 | 252 | 9.7 | 25.7 | 0.00 | 0.00 | 0.00 | 49 | 1000.0 |
| 20260504130713 | 15 | 214 | 6.4 | 25.7 | 0.00 | 0.00 | 0.00 | 50 | 999.1 |
| 20260504130209 | 15 | 234 | 9.7 | 16.1 | 0.00 | 0.00 | 0.00 | 50 | 999.2 |
| 20260504120133 | 15 | 201 | 17.7 | 27.4 | 0.00 | 0.00 | 0.00 | 47 | 998.6 |
| 20260504110600 | 15 | 152 | 4.8 | 11.3 | 0.00 | 0.00 | 0.00 | 46 | 998.1 |
| 20260504100522 | 13 | 160 | 3.2 | 3.2 | 0.00 | 0.00 | 0.00 | 51 | 999.0 |
| 20260504081916 | 12 | 92 | 0.0 | 4.8 | 0.00 | 0.00 | 0.00 | 51 | 1000.7 |
| 20260504081412 | 11 | 103 | 1.6 | 3.2 | 0.00 | 0.00 | 0.00 | 52 | 1000.7 |
| 20260504080908 | 12 | 73 | 1.6 | 3.2 | 0.00 | 0.00 | 0.00 | 52 | 1000.9 |
| 20260504080405 | 12 | 106 | 0.0 | 4.8 | 0.00 | 0.00 | 0.00 | 51 | 1001.0 |
| 20260504070333 | 13 | 118 | 3.2 | 8.0 | 0.00 | 0.00 | 0.00 | 49 | 1002.2 |
| 20260504050721 | 13 | 147 | 1.6 | 3.2 | 0.00 | 0.00 | 0.00 | 44 | 1004.2 |
| 20260504050218 | 13 | 110 | 0.0 | 3.2 | 0.00 | 0.00 | 0.00 | 44 | 1004.4 |
| 20260504045715 | 14 | 162 | 3.2 | 8.0 | 0.00 | 0.00 | 0.00 | 43 | 1004.4 |
| 20260504045215 | 14 | 125 | 3.2 | 8.0 | 0.00 | 0.00 | 0.00 | 43 | 1004.5 |
| 20260504044714 | 14 | 121 | 0.0 | 1.6 | 0.00 | 0.00 | 0.00 | 44 | 1004.5 |
| 20260504044211 | 14 | 162 | 1.6 | 3.2 | 0.00 | 0.00 | 0.00 | 43 | 1004.7 |
| 20260504043708 | 13 | 130 | 1.6 | 3.2 | 0.00 | 0.00 | 0.00 | 43 | 1004.9 |
| 20260504043204 | 13 | 125 | 0.0 | 3.2 | 0.00 | 0.00 | 0.00 | 44 | 1004.7 |
| 20260504042702 | 13 | 139 | 0.0 | 1.6 | 0.00 | 0.00 | 0.00 | 44 | 1004.7 |
| 20260504042158 | 13 | 122 | 1.6 | 4.8 | 0.00 | 0.00 | 0.00 | 44 | 1004.9 |
| 20260504041654 | 13 | 207 | 0.0 | 1.6 | 0.00 | 0.00 | 0.00 | 44 | 1005.2 |
| 20260504041150 | 14 | 167 | 0.0 | 1.6 | 0.00 | 0.00 | 0.00 | 43 | 1005.2 |
| 20260504040647 | 14 | 236 | 0.0 | 1.6 | 0.00 | 0.00 | 0.00 | 42 | 1005.2 |
| 20260504040144 | 14 | 159 | 6.4 | 9.7 | 0.00 | 0.00 | 0.00 | 44 | 1005.5 |
| 20260504035641 | 13 | 188 | 0.0 | 1.6 | 0.00 | 0.00 | 0.00 | 42 | 1005.7 |
| 20260504035138 | 13 | 181 | 0.0 | 0.0 | 0.00 | 0.00 | 0.00 | 43 | 1005.7 |
| 20260504034635 | 14 | 205 | 0.0 | 1.6 | 0.00 | 0.00 | 0.00 | 42 | 1005.9 |
| 20260504034132 | 13 | 165 | 0.0 | 1.6 | 0.00 | 0.00 | 0.00 | 43 | 1005.9 |
| 20260504033630 | 13 | 214 | 0.0 | 0.0 | 0.00 | 0.00 | 0.00 | 43 | 1006.0 |
| 20260504033127 | 13 | 244 | 0.0 | 1.6 | 0.00 | 0.00 | 0.00 | 42 | 1006.3 |
| 20260504032624 | 13 | 270 | 0.0 | 1.6 | 0.00 | 0.00 | 0.00 | 42 | 1006.2 |
| 20260504032121 | 13 | 213 | 0.0 | 0.0 | 0.00 | 0.00 | 0.00 | 42 | 1006.2 |
| 20260504031618 | 13 | 275 | 0.0 | 0.0 | 0.00 | 0.00 | 0.00 | 42 | 1006.4 |
| 20260504031114 | 13 | 275 | 0.0 | 0.0 | 0.00 | 0.00 | 0.00 | 42 | 1006.3 |
| 20260504030611 | 14 | 275 | 0.0 | 0.0 | 0.00 | 0.00 | 0.00 | 42 | 1006.4 |
| 20260504030108 | 14 | 275 | 0.0 | 0.0 | 0.00 | 0.00 | 0.00 | 41 | 1006.4 |
| 20260504025605 | 14 | 275 | 0.0 | 1.6 | 0.00 | 0.00 | 0.00 | 40 | 1006.4 |
| 20260504025101 | 14 | 262 | 0.0 | 1.6 | 0.00 | 0.00 | 0.00 | 41 | 1006.4 |
| 20260504024559 | 14 | 225 | 0.0 | 0.0 | 0.00 | 0.00 | 0.00 | 41 | 1006.4 |
| 20260504024055 | 14 | 188 | 0.0 | 1.6 | 0.00 | 0.00 | 0.00 | 40 | 1006.7 |
| 20260504023552 | 15 | 214 | 0.0 | 0.0 | 0.00 | 0.00 | 0.00 | 40 | 1006.6 |
| 20260504023048 | 15 | 204 | 0.0 | 1.6 | 0.00 | 0.00 | 0.00 | 39 | 1006.4 |
| 20260504022544 | 15 | 224 | 0.0 | 3.2 | 0.00 | 0.00 | 0.00 | 39 | 1006.6 |
| 20260504022040 | 15 | 141 | 0.0 | 0.0 | 0.00 | 0.00 | 0.00 | 38 | 1006.4 |
| 20260504021538 | 15 | 200 | 0.0 | 0.0 | 0.00 | 0.00 | 0.00 | 39 | 1006.4 |
| 20260504021035 | 15 | 194 | 0.0 | 0.0 | 0.00 | 0.00 | 0.00 | 39 | 1006.5 |
| 20260504020532 | 15 | 165 | 0.0 | 0.0 | 0.00 | 0.00 | 0.00 | 40 | 1006.4 |
| 20260504020028 | 16 | 210 | 0.0 | 0.0 | 0.00 | 0.00 | 0.00 | 39 | 1006.7 |
| 20260504015524 | 16 | 204 | 0.0 | 0.0 | 0.00 | 0.00 | 0.00 | 39 | 1006.6 |
| 20260504015020 | 17 | 185 | 0.0 | 1.6 | 0.00 | 0.00 | 0.00 | 37 | 1006.6 |
| 20260504014517 | 17 | 177 | 1.6 | 4.8 | 0.00 | 0.00 | 0.00 | 35 | 1006.6 |
| 20260504014014 | 17 | 179 | 3.2 | 4.8 | 0.00 | 0.00 | 0.00 | 34 | 1006.5 |
| 20260504013512 | 17 | 192 | 3.2 | 4.8 | 0.00 | 0.00 | 0.00 | 34 | 1006.6 |
| 20260504013009 | 17 | 222 | 4.8 | 8.0 | 0.00 | 0.00 | 0.00 | 34 | 1006.7 |
| 20260504012506 | 17 | 196 | 1.6 | 8.0 | 0.00 | 0.00 | 0.00 | 34 | 1006.6 |
| 20260504012004 | 18 | 219 | 1.6 | 8.0 | 0.00 | 0.00 | 0.00 | 34 | 1006.8 |
| 20260504011500 | 18 | 212 | 8.0 | 9.7 | 0.00 | 0.00 | 0.00 | 33 | 1006.5 |
| 20260504010955 | 18 | 215 | 3.2 | 9.7 | 0.00 | 0.00 | 0.00 | 33 | 1006.6 |
| 20260504010452 | 18 | 232 | 1.6 | 3.2 | 0.00 | 0.00 | 0.00 | 34 | 1006.7 |
| 20260504005948 | 18 | 182 | 1.6 | 8.0 | 0.00 | 0.00 | 0.00 | 33 | 1006.6 |
| 20260504005445 | 18 | 190 | 3.2 | 8.0 | 0.00 | 0.00 | 0.00 | 32 | 1006.7 |
| 20260504004943 | 19 | 183 | 3.2 | 8.0 | 0.00 | 0.00 | 0.00 | 31 | 1006.6 |
| 20260504004440 | 19 | 199 | 4.8 | 9.7 | 0.00 | 0.00 | 0.00 | 31 | 1006.7 |
| 20260504003937 | 18 | 217 | 4.8 | 11.3 | 0.00 | 0.00 | 0.00 | 32 | 1006.8 |
| 20260504003433 | 19 | 176 | 1.6 | 9.7 | 0.00 | 0.00 | 0.00 | 32 | 1006.7 |
| 20260504002930 | 20 | 216 | 3.2 | 4.8 | 0.00 | 0.00 | 0.00 | 31 | 1006.7 |
| 20260504002427 | 19 | 215 | 0.0 | 4.8 | 0.00 | 0.00 | 0.00 | 31 | 1006.8 |
| 20260504001924 | 19 | 205 | 3.2 | 9.7 | 0.00 | 0.00 | 0.00 | 30 | 1006.8 |
| 20260504001422 | 19 | 241 | 4.8 | 12.9 | 0.00 | 0.00 | 0.00 | 30 | 1006.7 |
| 20260504000918 | 20 | 224 | 3.2 | 9.7 | 0.00 | 0.00 | 0.00 | 29 | 1007.0 |
| 20260504000416 | 19 | 205 | 4.8 | 9.7 | 0.00 | 0.00 | 0.00 | 29 | 1007.1 |
| 20260503235913 | 20 | 204 | 12.9 | 14.5 | 0.00 | 0.00 | 0.00 | 28 | 1007.0 |
| 20260503235410 | 20 | 190 | 6.4 | 12.9 | 0.00 | 0.00 | 0.00 | 28 | 1007.1 |
| 20260503234908 | 20 | 161 | 3.2 | 16.1 | 0.00 | 0.00 | 0.00 | 27 | 1007.0 |
| 20260503234405 | 20 | 230 | 6.4 | 16.1 | 0.00 | 0.00 | 0.00 | 28 | 1006.8 |
| 20260503233903 | 20 | 229 | 8.0 | 14.5 | 0.00 | 0.00 | 0.00 | 27 | 1007.0 |
| 20260503233359 | 20 | 231 | 1.6 | 14.5 | 0.00 | 0.00 | 0.00 | 27 | 1006.8 |
| 20260503232855 | 20 | 162 | 6.4 | 11.3 | 0.00 | 0.00 | 0.00 | 28 | 1006.9 |
| 20260503232353 | 20 | 231 | 8.0 | 11.3 | 0.00 | 0.00 | 0.00 | 27 | 1007.0 |
| 20260503231851 | 20 | 244 | 9.7 | 14.5 | 0.00 | 0.00 | 0.00 | 27 | 1007.3 |
| 20260503231347 | 20 | 229 | 4.8 | 14.5 | 0.00 | 0.00 | 0.00 | 27 | 1007.1 |
| 20260503230843 | 20 | 259 | 3.2 | 12.9 | 0.00 | 0.00 | 0.00 | 26 | 1007.0 |
| 20260503230340 | 20 | 197 | 3.2 | 14.5 | 0.00 | 0.00 | 0.00 | 26 | 1007.1 |
| 20260503225839 | 20 | 259 | 6.4 | 9.7 | 0.00 | 0.00 | 0.00 | 26 | 1007.2 |
| 20260503225334 | 20 | 232 | 8.0 | 24.1 | 0.00 | 0.00 | 0.00 | 26 | 1007.2 |
| 20260503224830 | 20 | 217 | 14.5 | 20.9 | 0.00 | 0.00 | 0.00 | 27 | 1007.2 |
| 20260503224328 | 20 | 231 | 6.4 | 11.3 | 0.00 | 0.00 | 0.00 | 27 | 1007.1 |
| 20260503223826 | 21 | 155 | 6.4 | 11.3 | 0.00 | 0.00 | 0.00 | 26 | 1007.3 |
| 20260503223323 | 21 | 129 | 1.6 | 3.2 | 0.00 | 0.00 | 0.00 | 26 | 1007.3 |
| 20260503222818 | 21 | 266 | 3.2 | 8.0 | 0.00 | 0.00 | 0.00 | 27 | 1007.3 |
| 20260503222317 | 20 | 232 | 8.0 | 11.3 | 0.00 | 0.00 | 0.00 | 27 | 1007.5 |
| 20260503221815 | 20 | 160 | 1.6 | 16.1 | 0.00 | 0.00 | 0.00 | 27 | 1007.2 |
| 20260503221313 | 20 | 184 | 6.4 | 17.7 | 0.00 | 0.00 | 0.00 | 26 | 1007.5 |
| 20260503220809 | 21 | 226 | 8.0 | 20.9 | 0.00 | 0.00 | 0.00 | 26 | 1007.5 |
| 20260503220306 | 20 | 215 | 9.7 | 14.5 | 0.00 | 0.00 | 0.00 | 26 | 1007.5 |
| 20260503215803 | 20 | 235 | 4.8 | 12.9 | 0.00 | 0.00 | 0.00 | 27 | 1007.5 |
| 20260503215259 | 20 | 255 | 11.3 | 16.1 | 0.00 | 0.00 | 0.00 | 26 | 1007.6 |
| 20260503214757 | 20 | 158 | 1.6 | 12.9 | 0.00 | 0.00 | 0.00 | 26 | 1007.7 |
| 20260503214254 | 20 | 244 | 3.2 | 22.5 | 0.00 | 0.00 | 0.00 | 26 | 1007.8 |
| 20260503213752 | 21 | 267 | 4.8 | 9.7 | 0.00 | 0.00 | 0.00 | 25 | 1007.6 |
| 20260503213249 | 20 | 218 | 1.6 | 12.9 | 0.00 | 0.00 | 0.00 | 25 | 1007.5 |
| 20260503212746 | 20 | 246 | 6.4 | 20.9 | 0.00 | 0.00 | 0.00 | 27 | 1007.7 |
| 20260503212244 | 20 | 205 | 12.9 | 20.9 | 0.00 | 0.00 | 0.00 | 25 | 1007.4 |
| 20260503211741 | 20 | 176 | 1.6 | 12.9 | 0.00 | 0.00 | 0.00 | 26 | 1007.4 |
| 20260503211238 | 20 | 242 | 12.9 | 17.7 | 0.00 | 0.00 | 0.00 | 26 | 1007.8 |
| 20260503210733 | 20 | 199 | 8.0 | 20.9 | 0.00 | 0.00 | 0.00 | 26 | 1007.8 |
| 20260503210231 | 21 | 190 | 0.0 | 11.3 | 0.00 | 0.00 | 0.00 | 29 | 1007.8 |
| 20260503205726 | 20 | 172 | 3.2 | 14.5 | 0.00 | 0.00 | 0.00 | 26 | 1008.0 |
| 20260503205222 | 20 | 92 | 3.2 | 16.1 | 0.00 | 0.00 | 0.00 | 25 | 1007.8 |
| 20260503204718 | 21 | 215 | 9.7 | 12.9 | 0.00 | 0.00 | 0.00 | 26 | 1007.7 |
| 20260503204217 | 20 | 266 | 3.2 | 9.7 | 0.00 | 0.00 | 0.00 | 30 | 1007.8 |
| 20260503203713 | 20 | 152 | 6.4 | 22.5 | 0.00 | 0.00 | 0.00 | 29 | 1007.8 |
| 20260503203211 | 20 | 276 | 8.0 | 14.5 | 0.00 | 0.00 | 0.00 | 29 | 1007.9 |
| 20260503202708 | 20 | 196 | 4.8 | 14.5 | 0.00 | 0.00 | 0.00 | 28 | 1007.7 |
| 20260503202206 | 20 | 153 | 3.2 | 11.3 | 0.00 | 0.00 | 0.00 | 30 | 1008.0 |
| 20260503201704 | 20 | 204 | 3.2 | 20.9 | 0.00 | 0.00 | 0.00 | 32 | 1008.1 |
| 20260503201201 | 20 | 247 | 9.7 | 20.9 | 0.00 | 0.00 | 0.00 | 31 | 1008.0 |
| 20260503200657 | 20 | 248 | 4.8 | 20.9 | 0.00 | 0.00 | 0.00 | 29 | 1008.0 |